TimeIST,TemperatureF,Dew PointF,Humidity,Sea Level PressureIn,VisibilityMPH,Wind Direction,Wind SpeedMPH,Gust SpeedMPH,PrecipitationIn,Events,Conditions,WindDirDegrees,DateUTC
1:00 AM,51.8,48.2,88,29.98,0.1,Calm,Calm,-,N/A,Fog,Fog,0,2013-02-02 19:30:00
2:30 AM,49,47,92,30.00,0,Calm,Calm,,,Fog,Partial Fog,,2013-02-02 21:00:00
3:00 AM,48.2,48.2,100,29.98,0.1,Calm,Calm,-,N/A,Fog,Fog,0,2013-02-02 21:30:00
4:00 AM,46.4,46.4,100,29.98,0.1,Calm,Calm,-,N/A,Fog,Fog,0,2013-02-02 22:30:00
5:30 AM,48,46,88,29.99,0,,2.3,,,Fog,Partial Fog,,2013-02-03 00:00:00
5:30 AM,48.2,46.4,93,29.95,0.2,Variable,2.3,-,N/A,Fog,Fog,0,2013-02-03 00:00:00
6:00 AM,48.2,46.4,93,29.95,0.2,Variable,2.3,-,N/A,Fog,Fog,0,2013-02-03 00:30:00
6:30 AM,46.4,46.4,100,29.98,0.2,Variable,2.3,-,N/A,Fog,Fog,0,2013-02-03 01:00:00
8:00 AM,48.2,46.4,93,30.01,0.2,Calm,Calm,-,N/A,Fog,Fog,0,2013-02-03 02:30:00
8:30 AM,54,50,82,30.05,0,Calm,Calm,,,Fog,Partial Fog,,2013-02-03 03:00:00
8:30 AM,53.6,50.0,88,30.01,0.3,Calm,Calm,-,N/A,Fog,Fog,0,2013-02-03 03:00:00
9:00 AM,55.4,51.8,88,30.04,-9999.0,Calm,Calm,-,N/A,Fog,Fog,0,2013-02-03 03:30:00
10:30 AM,68.0,50.0,52,30.04,0.9,NNW,3.5,-,N/A,,Haze,330,2013-02-03 05:00:00
11:00 AM,69.8,50.0,49,30.04,1.0,NNW,3.5,-,N/A,,Haze,330,2013-02-03 05:30:00
11:30 AM,71.6,50.0,46,30.04,1.2,WNW,4.6,-,N/A,,Haze,290,2013-02-03 06:00:00
12:00 PM,71.6,50.0,46,30.01,1.2,Variable,2.3,-,N/A,,Haze,0,2013-02-03 06:30:00
12:30 PM,73.4,50.0,44,30.01,1.6,Variable,2.3,-,N/A,,Haze,0,2013-02-03 07:00:00
1:00 PM,75.2,50.0,41,29.98,1.6,Variable,2.3,-,N/A,,Haze,0,2013-02-03 07:30:00
2:00 PM,77.0,48.2,36,29.95,1.9,Variable,2.3,-,N/A,,Haze,0,2013-02-03 08:30:00
2:30 PM,77,45,21,29.96,1,,2.3,,,,Haze,,2013-02-03 09:00:00
2:30 PM,77.0,44.6,32,29.95,2.2,Variable,2.3,-,N/A,,Haze,0,2013-02-03 09:00:00
3:00 PM,77.0,44.6,32,29.95,2.2,North,3.5,-,N/A,,Haze,10,2013-02-03 09:30:00
3:30 PM,77.0,46.4,34,29.95,2.2,Variable,2.3,-,N/A,,Haze,0,2013-02-03 10:00:00
4:00 PM,77.0,48.2,36,29.92,2.2,Variable,2.3,-,N/A,,Haze,0,2013-02-03 10:30:00
4:30 PM,75.2,48.2,38,29.95,2.2,Variable,2.3,-,N/A,,Haze,0,2013-02-03 11:00:00
5:00 PM,75.2,50.0,41,29.95,1.9,Variable,2.3,-,N/A,,Haze,0,2013-02-03 11:30:00
5:30 PM,73,52,37,29.96,1,,2.3,,,,Haze,,2013-02-03 12:00:00
5:30 PM,73.4,51.8,47,29.95,1.9,Variable,2.3,-,N/A,,Haze,0,2013-02-03 12:00:00
6:00 PM,71.6,53.6,53,29.95,1.9,Calm,Calm,-,N/A,,Haze,0,2013-02-03 12:30:00
6:30 PM,68.0,55.4,64,29.98,1.6,Calm,Calm,-,N/A,,Haze,0,2013-02-03 13:00:00
7:00 PM,66.2,55.4,68,29.98,1.2,Calm,Calm,-,N/A,,Haze,0,2013-02-03 13:30:00
7:30 PM,64.4,55.4,73,29.98,1.2,Variable,2.3,-,N/A,,Haze,0,2013-02-03 14:00:00
8:00 PM,62.6,53.6,72,30.01,1.2,Calm,Calm,-,N/A,,Mist,0,2013-02-03 14:30:00
8:30 PM,61,54,71,30.03,1,Calm,Calm,,,,Mist,,2013-02-03 15:00:00
8:30 PM,60.8,53.6,77,30.01,1.1,Calm,Calm,-,N/A,,Mist,0,2013-02-03 15:00:00
10:00 PM,59.0,51.8,77,30.01,0.7,Calm,Calm,-,N/A,Fog,Shallow Fog,0,2013-02-03 16:30:00
11:00 PM,57.2,51.8,82,30.01,0.6,Calm,Calm,-,N/A,Fog,Shallow Fog,0,2013-02-03 17:30:00
11:30 PM,56,52,81,30.04,1,Calm,Calm,,,Fog,Patches of Fog,,2013-02-03 18:00:00